Koksijde, Belgium

11:05 PM CEST on August 27, 2016 (GMT +0200)
Koksijde Air Base

Weather History for EBFN - January, 2014

Change the Weather History Date:

Wednesday, January 1, 2014

  Actual Average Record
Temperature  
Mean Temperature 44 °F -  
Max Temperature 50 °F 42 °F 55 °F (2012)
Min Temperature 39 °F 35 °F 14 °F (1997)
Degree Days  
Heating Degree Days 20    
Moisture  
Dew Point 41 °F    
Average Humidity 87    
Maximum Humidity 93    
Minimum Humidity 77    
Precipitation  
Precipitation 0.01 in - - ()
Sea Level Pressure  
Sea Level Pressure 29.55 in    
Wind  
Wind Speed 16 mph ()    
Max Wind Speed 28 mph    
Max Gust Speed 45 mph    
Visibility 8.0 miles    
Events Rain    
Averages and records for this station are not official NWS values.
T = Trace of Precipitation, MM = Missing Value Source: Averaged Metar Reports

Daily Weather History Graph

Daily Weather History Graph

Search for Another Location

Airport or City:

Trip Planner

Search our weather history database for the weather conditions in past years. The results will help you decide how hot, cold, wet, or windy it might be!

Date:

Astronomy

Jan. 01, 2014 Rise Set
Actual Time 8:53 AM CET 4:53 PM CET
Civil Twilight 8:13 AM CET 5:32 PM CET
Nautical Twilight 7:31 AM CET 6:14 PM CET
Astronomical Twilight 6:50 AM CET 6:55 PM CET
Moon 8:22 AM CET (1/1) 5:28 PM CET (1/1)
Length of Visible Light 9h 18m
Length of Day
8h 00m
Waning Crescent, 0% of the Moon is Illuminated
Jan 1
Waning Crescent
Jan 1
New
Jan 8
First Quarter
Jan 16
Full
Jan 24
Last Quarter

Hourly Weather History & Observations

Time (CET) Temp. Windchill Dew Point Humidity Pressure Visibility Wind Dir Wind Speed Gust Speed Precip Events Conditions
12:00 AM 43 °F - 40 °F 87% 29.74 in 28 mi SSW 11.2 mph - -   Scattered Clouds
12:25 AM 42.8 °F 36.2 °F 39.2 °F 87% 29.74 in 6.2 mi SSW 12.7 mph - N/A   Scattered Clouds
12:55 AM 41.0 °F 33.5 °F 39.2 °F 93% 29.74 in 6.2 mi SSW 13.8 mph - N/A   Scattered Clouds
1:00 AM 42 °F - 40 °F 88% 29.75 in 28 mi SSW 13.4 mph - -   Partly Cloudy
1:25 AM 41.0 °F 34.3 °F 39.2 °F 93% 29.74 in 6.2 mi SSW 11.5 mph - N/A   Partly Cloudy
1:55 AM 41.0 °F 34.3 °F 39.2 °F 93% 29.74 in 6.2 mi South 11.5 mph - N/A   Partly Cloudy
2:00 AM 42 °F - 39 °F 83% 29.75 in 12 mi South 11.2 mph - -   Clear
2:25 AM 41.0 °F 35.2 °F 39.2 °F 93% 29.74 in 6.2 mi South 9.2 mph - N/A   Partly Cloudy
2:55 AM 41.0 °F 34.3 °F 39.2 °F 93% 29.74 in 6.2 mi South 11.5 mph - N/A   Partly Cloudy
3:00 AM 40 °F - 38 °F 91% 29.75 in 12 mi South 11.2 mph - -   Clear
3:25 AM 41.0 °F 33.5 °F 37.4 °F 87% 29.74 in 6.2 mi South 13.8 mph - N/A   Partly Cloudy
3:55 AM 39.2 °F 31.2 °F 37.4 °F 93% 29.71 in 6.2 mi South 13.8 mph - N/A   Partly Cloudy
4:00 AM 40 °F - 38 °F 88% 29.74 in 12 mi South 13.4 mph - -   Clear
4:25 AM 41.0 °F 33.1 °F 37.4 °F 87% 29.71 in 6.2 mi South 15.0 mph - N/A   Partly Cloudy
4:55 AM 41.0 °F 33.1 °F 37.4 °F 87% 29.71 in 6.2 mi South 15.0 mph - N/A   Partly Cloudy
5:25 AM 41.0 °F 33.5 °F 37.4 °F 87% 29.71 in 6.2 mi South 13.8 mph - N/A   Mostly Cloudy
5:55 AM 41.0 °F 32.8 °F 37.4 °F 87% 29.71 in 6.2 mi South 16.1 mph - N/A   Mostly Cloudy
6:00 AM 40 °F - 38 °F 88% 29.73 in 16 mi South 15.7 mph - -   Scattered Clouds
6:25 AM 41.0 °F 33.1 °F 37.4 °F 87% 29.71 in 6.2 mi South 15.0 mph - N/A   Scattered Clouds
6:55 AM 41.0 °F 34.3 °F 37.4 °F 87% 29.71 in 6.2 mi South 11.5 mph - N/A   Scattered Clouds
7:00 AM 40 °F - 38 °F 88% 29.72 in 15 mi South 11.2 mph - -   Scattered Clouds
7:25 AM 41.0 °F 33.5 °F 37.4 °F 87% 29.71 in 6.2 mi South 13.8 mph - N/A   Scattered Clouds
7:55 AM 41.0 °F 33.5 °F 39.2 °F 93% 29.68 in 6.2 mi South 13.8 mph - N/A   Scattered Clouds
8:00 AM 41 °F - 38 °F 87% 29.71 in 15 mi South 13.4 mph - -   Scattered Clouds
8:25 AM 41.0 °F 33.1 °F 39.2 °F 93% 29.68 in 6.2 mi South 15.0 mph - N/A   Scattered Clouds
8:55 AM 41.0 °F 33.1 °F 39.2 °F 93% 29.68 in 6.2 mi South 15.0 mph - N/A   Mostly Cloudy
9:00 AM 41 °F - 39 °F 88% 29.71 in 15 mi South 13.4 mph - -   Scattered Clouds
9:25 AM 42.8 °F 35.8 °F 39.2 °F 87% 29.68 in 6.2 mi SSE 13.8 mph - N/A   Mostly Cloudy
9:55 AM 42.8 °F 35.1 °F 39.2 °F 87% 29.68 in 6.2 mi South 16.1 mph - N/A   Mostly Cloudy
10:00 AM 42 °F - 39 °F 87% 29.70 in 15 mi South 15.7 mph - -   Scattered Clouds
10:25 AM 42.8 °F 34.5 °F 39.2 °F 87% 29.68 in 6.2 mi South 18.4 mph - N/A   Mostly Cloudy
10:55 AM 42.8 °F 34.3 °F 41.0 °F 93% 29.65 in 6.2 mi South 19.6 mph - N/A   Mostly Cloudy
11:00 AM 44 °F - 40 °F 83% 29.68 in 15 mi South 20.1 mph - -   Scattered Clouds
11:25 AM 44.6 °F 36.4 °F 41.0 °F 87% 29.65 in 6.2 mi South 20.7 mph - N/A   Mostly Cloudy
11:55 AM 44.6 °F 35.9 °F 41.0 °F 87% 29.62 in 6.2 mi South 23.0 mph - N/A   Mostly Cloudy
12:00 PM 44 °F - 41 °F 83% 29.65 in 15 mi South 22.4 mph - -   Scattered Clouds
12:15 PM 44.6 °F 36.4 °F 41.0 °F 87% 29.62 in 6.2 mi South 20.7 mph - N/A   Mostly Cloudy
12:25 PM 44.6 °F 36.1 °F 41.0 °F 87% 29.59 in 6.2 mi South 21.9 mph - N/A   Mostly Cloudy
12:55 PM 46.4 °F 38.3 °F 41.0 °F 81% 29.59 in 6.2 mi South 23.0 mph - N/A   Mostly Cloudy
1:00 PM 46 °F - 42 °F 79% 29.59 in 15 mi South 22.4 mph - -   Mostly Cloudy
1:25 PM 46.4 °F 38.1 °F 42.8 °F 87% 29.56 in 6.2 mi South 24.2 mph 35.7 mph N/A   Mostly Cloudy
1:55 PM 46.4 °F 38.3 °F 42.8 °F 87% 29.53 in 6.2 mi South 23.0 mph - N/A Rain Light Rain
2:00 PM 47 °F - 42 °F 77% 29.55 in 15 mi South 22.4 mph - - Rain Light Rain
2:25 PM 46.4 °F 38.3 °F 42.8 °F 87% 29.50 in 6.2 mi South 23.0 mph - N/A Rain Light Rain
2:55 PM 46.4 °F 38.3 °F 42.8 °F 87% 29.50 in 5.6 mi South 23.0 mph - N/A Rain Light Rain
3:00 PM 47 °F - 43 °F 80% 29.51 in 6 mi South 22.4 mph - - Rain Light Rain
3:25 PM 46.4 °F 38.3 °F 42.8 °F 87% 29.47 in 6.2 mi South 23.0 mph - N/A Rain Light Rain
3:55 PM 46.4 °F 37.9 °F 42.8 °F 87% 29.44 in 6.2 mi South 25.3 mph - N/A Rain Light Rain
4:00 PM 47 °F - 43 °F 81% 29.47 in 12 mi South 24.6 mph - - Rain Light Rain
4:24 PM 48.2 °F - 42.8 °F 82% 29.44 in 6.2 mi South 26.5 mph 40.3 mph N/A Rain Light Rain
4:25 PM 46.4 °F 37.7 °F 42.8 °F 87% 29.44 in 6.2 mi South 26.5 mph - N/A Rain Light Rain
4:55 PM 46.4 °F 37.7 °F 42.8 °F 87% 29.42 in 6.2 mi South 26.5 mph - N/A Rain Light Rain
5:00 PM 47 °F - 43 °F 82% 29.44 in 12 mi South 26.8 mph - - Rain Light Rain
5:25 PM 48.2 °F - 42.8 °F 82% 29.42 in 6.2 mi South 25.3 mph 38.0 mph N/A Rain Light Rain
5:55 PM 48.2 °F - 42.8 °F 82% 29.39 in 6.2 mi South 25.3 mph - N/A Rain Light Rain
6:00 PM 48 °F - 43 °F 78% 29.41 in 12 mi South 24.6 mph - - Rain Light Rain
6:25 PM 48.2 °F - 42.8 °F 82% 29.39 in 6.2 mi South 24.2 mph - N/A Rain Light Rain
6:55 PM 48.2 °F - 44.6 °F 87% 29.36 in 6.2 mi South 24.2 mph 36.8 mph N/A Rain Light Rain
7:00 PM 47 °F - 44 °F 85% 29.38 in 12 mi South 22.4 mph - - Rain Light Rain
7:25 PM 48.2 °F - 44.6 °F 87% 29.33 in 6.2 mi South 26.5 mph - N/A Rain Light Rain
7:55 PM 48.2 °F - 44.6 °F 87% 29.33 in 6.2 mi South 27.6 mph 39.1 mph N/A Rain Light Rain
8:00 PM 47 °F - 45 °F 89% 29.35 in 7 mi South 26.8 mph - - Rain Light Rain
8:24 PM 48.2 °F - 44.6 °F 87% 29.33 in 6.2 mi South 27.6 mph - N/A Rain Light Rain
8:25 PM 48.2 °F - 44.6 °F 87% 29.33 in 6.2 mi South 27.6 mph - N/A Rain Light Rain
8:54 PM 48.2 °F - 44.6 °F 87% 29.30 in 6.2 mi South 27.6 mph - N/A Rain Light Rain
8:55 PM 48.2 °F - 44.6 °F 87% 29.30 in 6.2 mi South 27.6 mph 39.1 mph N/A Rain Light Rain
9:25 PM 48.2 °F - 44.6 °F 87% 29.30 in 6.2 mi South 27.6 mph 44.9 mph N/A Rain Light Rain
9:55 PM 48.2 °F - 46.4 °F 93% 29.30 in 6.2 mi South 27.6 mph - N/A Rain Light Rain
10:00 PM 48 °F - 46 °F 88% 29.31 in 12 mi South 26.8 mph - - Rain Light Rain
10:25 PM 48.2 °F - 46.4 °F 93% 29.30 in 6.2 mi South 24.2 mph - N/A Rain Light Rain
10:53 PM 48.2 °F - 46.4 °F 93% 29.30 in 6.2 mi South 25.3 mph - N/A Rain Light Rain
10:55 PM 48.2 °F - 46.4 °F 93% 29.30 in 6.2 mi South 24.2 mph - N/A Rain Light Rain
11:00 PM 48 °F - 46 °F 89% 29.30 in 12 mi South 24.6 mph - - Rain Light Rain
11:25 PM 50.0 °F - 46.4 °F 87% 29.27 in 6.2 mi South 23.0 mph - N/A   Mostly Cloudy
11:55 PM 50.0 °F - 44.6 °F 82% 29.27 in 6.2 mi South 23.0 mph - N/A   Mostly Cloudy